Home > Weather > Syracuse > Past weeks

Flag for U.S.A. Weather for the Past 2 Weeks in Syracuse, New York, U.S.A.

Now
2 °F

Passing clouds.


Feels Like: 2 °F
Forecast: -11 / 6 °F
Wind: No wind

Location: Syracuse Hancock International Airport

Current Time: Feb 14, 2016 at 2:52:00 PM

Latest Report: Feb 14, 2016 at 1:54 PM


Visibility: 10 mi

Pressure: 30.55 "Hg

Humidity: 52%

Dew point: -12 °F

Location of SyracuseLocation

Historic Weather in Syracuse — Graph

°F

Syracuse Temperature Yesterday

Maximum temperature yesterday: 14 °F (at 12:54 AM)
Minimum temperature yesterday: -12 °F (at 11:54 PM)
Average temperature yesterday: 1 °F

High & Low Weather Summary for the Past Weeks

 TemperatureHumidityPressure
High54 °F (Jan 31, 7:54 PM)100% (Feb 9, 6:54 PM)30.60 "Hg (Feb 9, 6:54 PM)
Low-22 °F (Feb 14, 7:54 AM)41% (Jan 30, 1:54 PM)29.49 "Hg (Feb 9, 2:54 PM)
Average29 °F72%29.96 "Hg
* Reported Jan 30 12:54 PM — Feb 14 12:54 PM, Syracuse, Weather by CustomWeather, © 2016

Note: Actual official high and low records may vary slightly from our data, if they occured in-between our weather recording intervals... More about our weather records

Advertising

Syracuse Weather History for the Previous 24 Hours

 ConditionsComfort  
Time TempWeatherWind HumidityBarometerVisibility
12:54 PM
Sun, Feb 14
-4 °FSunny.3 mph58%30.56 "Hg10 mi
11:54 AM-6 °FSunny.No wind58%30.58 "Hg10 mi
10:54 AMN/ASunny.No windN/A30.60 "Hg10 mi
9:54 AM-13 °FPassing clouds.No wind63%30.60 "Hg10 mi
8:54 AM-18 °FSunny.3 mph86%30.60 "Hg10 mi
7:54 AM-22 °FSunny.5 mph85%30.59 "Hg10 mi
6:54 AM-21 °FClear.3 mph80%30.58 "Hg10 mi
4:54 AM-19 °FClear.No wind77%30.54 "Hg10 mi
3:54 AM-19 °FPassing clouds.No wind77%30.52 "Hg10 mi
2:54 AM-16 °FLight snow. Passing clouds.No wind70%30.51 "Hg9 mi
1:54 AM-16 °FLight snow. Passing clouds.7 mph78%30.50 "Hg3 mi
12:54 AM-14 °FLight snow. Overcast.9 mph74%30.48 "Hg4 mi
11:54 PM
Sat, Feb 13
-12 °FLight snow. Overcast.9 mph77%30.45 "Hg2 mi
10:54 PMN/ALight snow.10 mphN/A30.43 "Hg1 mi
9:54 PM-9 °FLight snow. Overcast.9 mph78%30.41 "Hg1 mi
8:54 PM-8 °FLight snow. Ice fog.9 mph83%30.38 "Hg1 mi
7:54 PM-4 °FLight snow. Ice fog.14 mph83%30.35 "Hg1 mi
6:54 PM-3 °FLight snow. Ice fog.8 mph86%30.32 "Hg1 mi
5:54 PM-1 °FHeavy snow. Ice fog.13 mph86%30.29 "Hg0 mi
4:54 PM-2 °FSnow. Ice fog.14 mph83%30.28 "Hg1 mi
4:01 PM-2 °FLight snow. Mostly cloudy.14 mph78%30.25 "Hg1 mi
2:54 PM-3 °FSnow. Ice fog.13 mph82%30.27 "Hg1 mi
Weather by CustomWeather, © 2016

See weather overviewHow to use our weather pages